User: anonymous   Login
Location: Unspecified
(42.1900°N, 71.3291°W)
Time: 03:39:31
(UTC-04:00)
Language:

Resurs 1-4 Rocket - Orbit

View from above orbital plane
View from above orbital plane
View from above satellite
View from above satellite

Ground track
Ground track

The orbit data is extracted from the following two-line orbital elements,

1 25400U 98043G   16148.90907159 +.00000002 +00000-0 +18751-4 0  9993
2 25400 098.4364 104.6112 0009647 350.7800 009.3202 14.25381773929963
Epoch (UTC): 27 May 2016 21:49:03
Eccentricity: 0.0009647
inclination: 98.4364°
perigee height: 800 km
apogee height: 814 km
right ascension of ascending node: 104.6112°
argument of perigee: 350.7800°
revolutions per day: 14.25381773
mean anomaly at epoch: 9.3202°
orbit number at epoch: 92996

The dashed part of the orbit path shows where the satellite is in the earth's shadow,  

DLR